Starlink 32615

operational
NORAD ID: 62034 Int'l Des: 2024-216 Owner: SPXS Country: US Constellation: starlink
LEOCIRCULAR

Starlink 32615について

説明を読み込み中...

リアルタイム位置

3D地球を読み込み中...

次回通過

高度履歴

Altitude vs Time

uPlot chart will show altitude changes over time

軌道要素

1 62034U 24216C 25352.01773099 .00018394 00000-0 67580-3 0 9997
2 62034 43.0049 357.6834 0002677 289.4269 70.6294 15.27602361 60226
Epoch: Dec 18, 2025 • Age: 19 hours

現在のステータス

高度 486.2 km
速度 7.63 km/s
衛星直下点 38.47°N, 30.33°E
打ち上げ日 Nov 21, 2024
運用期間 1 years
タイプ internet

技術仕様

分類 Payload
質量 730.00 kg
乾燥質量 700.00 kg
総質量 730.00 kg
長さ 0.30 m
直径 4.10 m
スパン 29.00 m
形状 Box + pan
製造者 SPXS
バスタイプ Starlink V2M
フェーズステータス In Orbit
所有者/国 SPXS/US

大規模コンステレーション

Loading constellations...